User: anonymous   Login
Location: Unspecified
(0.0000°N, 0.0000°E)
Time: 06:36:00
(UTC+02:00)
Language:

Cosmos 773 Rocket - Orbit

View from above orbital plane
View from above orbital plane
View from above satellite
View from above satellite

Ground track
Ground track

The orbit data is extracted from the following two-line orbital elements,

1 08344U 75094B   15108.48971331  .00000267  00000-0  95002-4 0  9990
2 08344 074.0563 142.4661 0023054 243.6328 116.2459 14.38943214 71940
Epoch (UTC): 18 April 2015 11:45:11
Eccentricity: 0.0023054
inclination: 74.0563°
perigee height: 745 km
apogee height: 778 km
right ascension of ascending node: 142.4661°
argument of perigee: 243.6328°
revolutions per day: 14.38943214
mean anomaly at epoch: 116.2459°
orbit number at epoch: 7194

The dashed part of the orbit path shows where the satellite is in the earth's shadow,  

DLR